TimePST,TemperatureF,Dew PointF,Humidity,Sea Level PressureIn,VisibilityMPH,Wind Direction,Wind SpeedMPH,Gust SpeedMPH,PrecipitationIn,Events,Conditions,WindDirDegrees,DateUTC
12:56 AM,14.0,6.1,71,30.57,10.0,Calm,Calm,-,N/A,,Clear,0,2014-01-06 08:56:00
1:56 AM,12.0,6.1,77,30.58,10.0,Calm,Calm,-,N/A,,Clear,0,2014-01-06 09:56:00
2:56 AM,12.0,5.0,73,30.58,10.0,East,4.6,-,N/A,,Clear,90,2014-01-06 10:56:00
3:56 AM,12.0,5.0,73,30.58,10.0,Calm,Calm,-,N/A,,Clear,0,2014-01-06 11:56:00
4:56 AM,10.0,3.9,76,30.62,10.0,ENE,6.9,-,N/A,,Clear,70,2014-01-06 12:56:00
5:56 AM,10.0,3.9,76,30.63,10.0,East,6.9,-,N/A,,Clear,80,2014-01-06 13:56:00
6:56 AM,10.9,3.9,73,30.64,10.0,ENE,5.8,-,N/A,,Clear,60,2014-01-06 14:56:00
7:56 AM,10.9,3.9,73,30.66,10.0,ESE,4.6,-,N/A,,Clear,120,2014-01-06 15:56:00
8:56 AM,17.1,7.0,65,30.64,10.0,Calm,Calm,-,N/A,,Clear,0,2014-01-06 16:56:00
9:56 AM,21.0,10.0,63,30.63,10.0,Calm,Calm,-,N/A,,Clear,0,2014-01-06 17:56:00
10:56 AM,27.0,9.0,47,30.59,10.0,Calm,Calm,-,N/A,,Clear,0,2014-01-06 18:56:00
11:56 AM,32.0,9.0,38,30.51,10.0,Calm,Calm,-,N/A,,Clear,0,2014-01-06 19:56:00
12:56 PM,36.0,9.0,33,30.47,10.0,Calm,Calm,-,N/A,,Clear,0,2014-01-06 20:56:00
1:56 PM,37.9,7.0,28,30.45,10.0,Calm,Calm,-,N/A,,Clear,0,2014-01-06 21:56:00
2:56 PM,37.9,7.0,28,30.43,10.0,Calm,Calm,-,N/A,,Clear,0,2014-01-06 22:56:00
3:56 PM,36.0,9.0,33,30.43,10.0,East,6.9,-,N/A,,Clear,100,2014-01-06 23:56:00
4:56 PM,33.1,10.9,40,30.42,10.0,East,4.6,-,N/A,,Clear,80,2014-01-07 00:56:00
5:56 PM,30.0,12.0,47,30.42,10.0,ENE,5.8,-,N/A,,Clear,70,2014-01-07 01:56:00
6:56 PM,27.0,12.0,53,30.43,10.0,East,4.6,-,N/A,,Clear,80,2014-01-07 02:56:00
7:56 PM,27.0,12.0,53,30.42,10.0,Calm,Calm,-,N/A,,Clear,0,2014-01-07 03:56:00
8:56 PM,25.0,12.9,60,30.39,10.0,East,5.8,-,N/A,,Clear,100,2014-01-07 04:56:00
9:56 PM,24.1,12.9,62,30.37,10.0,Calm,Calm,-,N/A,,Clear,0,2014-01-07 05:56:00
10:56 PM,25.0,12.9,60,30.32,10.0,Calm,Calm,-,N/A,,Clear,0,2014-01-07 06:56:00
11:56 PM,24.1,12.9,62,30.30,10.0,ESE,3.5,-,N/A,,Clear,110,2014-01-07 07:56:00